AirNav   Phillips 66 Aviation Fuel
 
 974 users online  

07MO Lake Sexton Airport
Warrensburg, Missouri, USA

GOING TO WARRENSBURG?


FAA INFORMATION EFFECTIVE 25 APRIL 2019

Location

FAA Identifier: 07MO
Lat/Long: 38-39-00.0530N / 093-37-00.7660W
38-39.000883N / 093-37.012767W
38.6500147 / -93.6168794
(estimated)
Elevation: 880 ft. / 268 m (estimated)
Variation: 04E (1985)
From city: 9 miles SE of WARRENSBURG, MO
Time zone: UTC -5 (UTC -6 during Standard Time)
Zip code: 64761

Airport Operations

Airport use: Private use. Permission required prior to landing
Activation date: 05/1966
Control tower: no
ARTCC: KANSAS CITY CENTER
FSS: COLUMBIA FLIGHT SERVICE STATION
Attendance: UNATNDD
Wind indicator: yes
Segmented circle: no

Airport Communications

WX AWOS-3 at RCM (12 nm NW): 119.575 (660-422-7010)
WX AWOS-3 at GLY (18 nm S): 120.475 (660-885-3851)

Nearby radio navigation aids

VOR radial/distance  VOR name  Freq  Var
ANXr131/35.9NAPOLEON VORTAC114.0007E

 
NDB name  Hdg/Dist  Freq  Var  ID
GOLDEN VALLEY009/17.838801EGLY --. .-.. -.--
SEDALIA258/20.928103EDMO -.. -- ---
MARSHALL217/30.737103EPUR .--. ..- .-.

Airport Services

Airframe service: NONE
Powerplant service: NONE

Runway Information

Runway 17/35

Dimensions: 2700 x 40 ft. / 823 x 12 m
Surface: turf/gravel, in fair condition
RUNWAY 17  RUNWAY 35
Traffic pattern: leftleft
Obstructions: treestrees
RWY END 17 HANGER, POLES AND TREES.

Airport Ownership and Management from official FAA records

Ownership: Privately-owned
Owner: L SEXTON
PO BOX 381
WARRENSBURG, MO 64093
Phone 816-747-9532
Manager: L SEXTON
PO BOX 381
WARRENSBURG, MO 64093
Phone 816-747-9532

Additional Remarks

LOOSE GRAVEL CENTER 30' ON RWY

Instrument Procedures

There are no published instrument procedures at 07MO.

Some nearby airports with instrument procedures:

KSZL - Whiteman Air Force Base (6 nm NE)
KRCM - Skyhaven Airport (12 nm NW)
KGLY - Clinton Regional Airport (18 nm S)
KDMO - Sedalia Regional Airport (21 nm E)
KRAW - Warsaw Municipal Airport (22 nm SE)
 
Loc | Ops | Rwys | IFR | FBO | Links
Com | Nav | Svcs | Stats | Notes

Kansas City Aviation Department
 
Area around 07MO (Lake Sexton Airport)
 
Road maps at: MapQuest Bing Google
 
Aerial photo
No photo
 
Sectional chart

 
Airport distance calculator
Flying to Lake Sexton Airport? Find the distance to fly.

From to 07MO

Sunrise and sunset
Times for 19-May-2019
 Local
(UTC-5)
 Zulu
(UTC)
Morning civil twilight05:3010:30
Sunrise06:0011:00
Sunset20:2201:22
Evening civil twilight20:5201:52

Current date and time
Zulu (UTC)  19-May-2019 16:17:44
Local (UTC-5)  19-May-2019 11:17:44
 
METAR
KSZL 
6nm NE 
191556Z 28012KT 10SM FEW016 BKN022 BKN200 18/16 A2974 RMK AO2A SLP070 T01840158 $
KRCM 
12nm NW 
191535Z AUTO 26009KT 10SM BKN014 BKN027 OVC047 16/13 A2976 RMK AO2
KGLY 
18nm S 
191555Z AUTO 31010KT 10SM BKN019 OVC027 18/14 A2981 RMK AO2
TAF
KSZL 
6nm NE 
191100Z 1911/2017 30015G20KT 9999 SCT010 BKN060 QNH2954INS BECMG 1915/1916 30015G30KT 9999 SCT020 QNH2961INS BECMG 2000/2001 31009KT 9999 FEW050 QNH2987INS TX21/1920Z TN10/2011Z
NOTAMs
Click for the latest NOTAMs
NOTAMs are issued by the DoD/FAA and will open in a separate window not controlled by AirNav.

 

 
 

Would you like to see your business listed on this page?

 If your business provides an interesting product or service to pilots, flight crews, aircraft, or users of the Lake Sexton Airport, you should consider listing it here.  To start the listing process, click on the button below
 
Add a business
 

Other Pages about Lake Sexton Airport

Update a link
 
Copyright © AirNav, LLC. All rights reserved. Privacy Policy  Contact